| time (UTC) | temp C | wind direction | speed KPH | gust KPH | rain 1hr cm | rain 24hr cm | rain mn cm | humidity % | barometer mb |
| 20260904101036 | 11 | 360 | 0.0 | 1.6 | 0.00 | 0.00 | 0.00 | 73 | 1009.8 |
| 20260904100542 | 11 | 360 | 0.0 | 1.6 | 0.00 | 0.00 | 0.00 | 73 | 1009.8 |
| 20260904100108 | 11 | 360 | 0.0 | 3.2 | 0.00 | 0.00 | 0.00 | 73 | 1009.8 |
| 20260904095524 | 11 | 360 | 0.0 | 3.2 | 0.00 | 0.00 | 0.00 | 73 | 1009.5 |
| 20260904095048 | 11 | 360 | 0.0 | 1.6 | 0.00 | 0.00 | 0.00 | 73 | 1009.6 |
| 20260904094604 | 11 | 360 | 0.0 | 1.6 | 0.00 | 0.00 | 0.00 | 73 | 1009.4 |
| 20260904094002 | 11 | 360 | 0.0 | 1.6 | 0.00 | 0.00 | 0.00 | 73 | 1009.4 |
| 20260904093542 | 11 | 360 | 0.0 | 4.8 | 0.00 | 0.00 | 0.00 | 72 | 1009.5 |
| 20260904093004 | 11 | 360 | 0.0 | 4.8 | 0.00 | 0.00 | 0.00 | 72 | 1009.5 |
| 20260904092543 | 11 | 360 | 0.0 | 3.2 | 0.00 | 0.00 | 0.00 | 72 | 1009.4 |
| 20260904092017 | 11 | 360 | 0.0 | 3.2 | 0.00 | 0.00 | 0.00 | 73 | 1009.4 |
| 20260904091542 | 11 | 360 | 0.0 | 3.2 | 0.00 | 0.00 | 0.00 | 73 | 1009.4 |
| 20260904091008 | 11 | 360 | 0.0 | 3.2 | 0.00 | 0.00 | 0.00 | 73 | 1009.3 |
| 20260904090547 | 11 | 360 | 0.0 | 4.8 | 0.00 | 0.00 | 0.00 | 73 | 1009.3 |
| 20260904090057 | 11 | 360 | 0.0 | 4.8 | 0.00 | 0.00 | 0.00 | 74 | 1009.3 |
| 20260904085530 | 11 | 360 | 1.6 | 4.8 | 0.00 | 0.00 | 0.00 | 73 | 1009.3 |
| 20260904085059 | 11 | 38 | 1.6 | 4.8 | 0.00 | 0.00 | 0.00 | 72 | 1009.2 |
| 20260904084510 | 11 | 22 | 1.6 | 4.8 | 0.00 | 0.00 | 0.00 | 72 | 1009.3 |
| 20260904084039 | 11 | 22 | 1.6 | 4.8 | 0.00 | 0.00 | 0.00 | 72 | 1009.3 |
| 20260904083609 | 11 | 360 | 1.6 | 4.8 | 0.00 | 0.00 | 0.00 | 72 | 1009.4 |
| 20260904083010 | 11 | 360 | 0.0 | 3.2 | 0.00 | 0.00 | 0.00 | 72 | 1009.3 |
| 20260904082541 | 11 | 360 | 1.6 | 4.8 | 0.00 | 0.00 | 0.00 | 72 | 1009.5 |
| 20260904082002 | 11 | 360 | 1.6 | 4.8 | 0.00 | 0.00 | 0.00 | 72 | 1009.4 |
| 20260904081512 | 11 | 360 | 1.6 | 6.4 | 0.00 | 0.00 | 0.00 | 72 | 1009.3 |
| 20260904081049 | 11 | 360 | 0.0 | 6.4 | 0.00 | 0.00 | 0.00 | 72 | 1009.3 |
| 20260904080510 | 11 | 360 | 0.0 | 4.8 | 0.00 | 0.00 | 0.00 | 71 | 1009.1 |
| 20260904080042 | 11 | 360 | 0.0 | 4.8 | 0.00 | 0.00 | 0.00 | 71 | 1009.1 |
| 20260904075502 | 11 | 360 | 0.0 | 4.8 | 0.00 | 0.00 | 0.00 | 70 | 1009.1 |
| 20260904075037 | 11 | 42 | 0.0 | 4.8 | 0.00 | 0.00 | 0.00 | 69 | 1009.2 |
| 20260904074545 | 11 | 49 | 0.0 | 4.8 | 0.00 | 0.00 | 0.00 | 68 | 1009.1 |
| 20260904074007 | 11 | 51 | 0.0 | 4.8 | 0.00 | 0.00 | 0.00 | 68 | 1009.1 |
| 20260904073513 | 11 | 51 | 0.0 | 3.2 | 0.00 | 0.00 | 0.00 | 67 | 1009.1 |
| 20260904073051 | 11 | 51 | 0.0 | 3.2 | 0.00 | 0.00 | 0.00 | 67 | 1009.0 |
| 20260904072521 | 11 | 51 | 0.0 | 3.2 | 0.00 | 0.00 | 0.00 | 67 | 1009.0 |
| 20260904072032 | 12 | 51 | 0.0 | 3.2 | 0.00 | 0.00 | 0.00 | 66 | 1009.0 |
| 20260904071555 | 12 | 51 | 0.0 | 4.8 | 0.00 | 0.00 | 0.00 | 65 | 1009.0 |
| 20260904071102 | 12 | 70 | 0.0 | 4.8 | 0.00 | 0.00 | 0.00 | 65 | 1008.9 |
| 20260904070505 | 12 | 74 | 0.0 | 4.8 | 0.00 | 0.00 | 0.00 | 65 | 1008.9 |
| 20260904070041 | 12 | 78 | 0.0 | 3.2 | 0.00 | 0.00 | 0.00 | 64 | 1008.8 |
| 20260904065558 | 12 | 82 | 0.0 | 4.8 | 0.00 | 0.00 | 0.00 | 64 | 1008.9 |
| 20260904065031 | 12 | 83 | 0.0 | 4.8 | 0.00 | 0.00 | 0.00 | 64 | 1008.8 |
| 20260904064524 | 12 | 84 | 0.0 | 4.8 | 0.00 | 0.00 | 0.00 | 64 | 1008.9 |
| 20260904064039 | 12 | 85 | 0.0 | 6.4 | 0.00 | 0.00 | 0.00 | 63 | 1008.9 |
| 20260904063548 | 12 | 360 | 1.6 | 6.4 | 0.00 | 0.00 | 0.00 | 64 | 1009.0 |
| 20260904063007 | 12 | 360 | 3.2 | 4.8 | 0.00 | 0.00 | 0.00 | 64 | 1009.0 |
| 20260904062548 | 12 | 360 | 0.0 | 4.8 | 0.00 | 0.00 | 0.00 | 65 | 1009.0 |
| 20260904062014 | 12 | 360 | 1.6 | 4.8 | 0.00 | 0.00 | 0.00 | 64 | 1008.9 |
| 20260904061554 | 12 | 360 | 1.6 | 4.8 | 0.00 | 0.00 | 0.00 | 64 | 1009.0 |
| 20260904061033 | 13 | 360 | 0.0 | 6.4 | 0.00 | 0.00 | 0.00 | 64 | 1008.9 |
| 20260904060546 | 12 | 360 | 1.6 | 6.4 | 0.00 | 0.00 | 0.00 | 63 | 1008.9 |
| 20260904060050 | 12 | 360 | 0.0 | 3.2 | 0.00 | 0.03 | 0.00 | 63 | 1008.9 |
| 20260904055600 | 13 | 360 | 0.0 | 3.2 | 0.00 | 0.03 | 0.00 | 64 | 1008.9 |
| 20260904055008 | 13 | 360 | 1.6 | 3.2 | 0.00 | 0.03 | 0.00 | 65 | 1008.9 |
| 20260904054551 | 13 | 360 | 0.0 | 4.8 | 0.00 | 0.03 | 0.00 | 65 | 1009.0 |
| 20260904054023 | 13 | 360 | 1.6 | 4.8 | 0.00 | 0.03 | 0.00 | 64 | 1009.1 |
| 20260904053534 | 13 | 360 | 0.0 | 4.8 | 0.00 | 0.03 | 0.00 | 64 | 1009.1 |
| 20260904053044 | 13 | 360 | 1.6 | 4.8 | 0.00 | 0.03 | 0.00 | 64 | 1009.1 |
| 20260904052512 | 13 | 360 | 1.6 | 4.8 | 0.00 | 0.03 | 0.00 | 64 | 1009.1 |
| 20260904052050 | 13 | 57 | 1.6 | 8.0 | 0.00 | 0.03 | 0.00 | 63 | 1009.1 |
| 20260904051516 | 13 | 44 | 3.2 | 8.0 | 0.00 | 0.03 | 0.00 | 63 | 1009.3 |
| 20260904051056 | 13 | 41 | 3.2 | 8.0 | 0.00 | 0.03 | 0.00 | 63 | 1009.2 |
| 20260904050531 | 13 | 360 | 3.2 | 8.0 | 0.00 | 0.03 | 0.00 | 62 | 1009.3 |
| 20260904050100 | 13 | 28 | 3.2 | 6.4 | 0.00 | 0.03 | 0.00 | 62 | 1009.3 |
| 20260904045520 | 13 | 360 | 1.6 | 9.7 | 0.00 | 0.03 | 0.00 | 62 | 1009.4 |
| 20260904045100 | 13 | 39 | 3.2 | 16.1 | 0.00 | 0.03 | 0.00 | 62 | 1009.2 |
| 20260904044535 | 13 | 17 | 4.8 | 16.1 | 0.00 | 0.03 | 0.00 | 62 | 1009.4 |
| 20260904044105 | 13 | 24 | 6.4 | 14.5 | 0.00 | 0.03 | 0.00 | 62 | 1009.3 |
| 20260904043508 | 13 | 38 | 3.2 | 8.0 | 0.00 | 0.03 | 0.00 | 62 | 1009.3 |
| 20260904043051 | 13 | 32 | 1.6 | 12.9 | 0.00 | 0.03 | 0.00 | 62 | 1009.2 |
| 20260904042524 | 13 | 64 | 4.8 | 12.9 | 0.00 | 0.03 | 0.00 | 62 | 1009.1 |
| 20260904042052 | 13 | 36 | 4.8 | 9.7 | 0.00 | 0.03 | 0.00 | 62 | 1009.3 |
| 20260904041516 | 13 | 360 | 1.6 | 4.8 | 0.00 | 0.03 | 0.00 | 62 | 1009.3 |
| 20260904041056 | 13 | 360 | 0.0 | 4.8 | 0.00 | 0.03 | 0.00 | 62 | 1009.1 |
| 20260904040534 | 13 | 360 | 0.0 | 4.8 | 0.00 | 0.03 | 0.00 | 62 | 1009.0 |
| 20260904040106 | 13 | 360 | 0.0 | 6.4 | 0.00 | 0.03 | 0.00 | 62 | 1009.0 |
| 20260904035510 | 13 | 360 | 1.6 | 8.0 | 0.00 | 0.03 | 0.00 | 62 | 1008.9 |
| 20260904035051 | 13 | 360 | 3.2 | 8.0 | 0.00 | 0.03 | 0.00 | 62 | 1008.8 |
| 20260904034529 | 13 | 21 | 1.6 | 8.0 | 0.00 | 0.03 | 0.00 | 63 | 1008.7 |
| 20260904034054 | 13 | 360 | 1.6 | 8.0 | 0.00 | 0.03 | 0.00 | 62 | 1008.8 |
| 20260904033521 | 13 | 18 | 3.2 | 16.1 | 0.00 | 0.03 | 0.00 | 62 | 1008.8 |
| 20260904033056 | 13 | 360 | 3.2 | 16.1 | 0.00 | 0.03 | 0.00 | 62 | 1008.8 |
| 20260904032534 | 14 | 360 | 3.2 | 9.7 | 0.00 | 0.03 | 0.00 | 62 | 1008.5 |
| 20260904032104 | 14 | 360 | 3.2 | 6.4 | 0.00 | 0.03 | 0.00 | 62 | 1008.5 |
| 20260904031608 | 14 | 360 | 1.6 | 6.4 | 0.00 | 0.03 | 0.00 | 61 | 1008.5 |
| 20260904031105 | 14 | 360 | 1.6 | 4.8 | 0.00 | 0.03 | 0.00 | 61 | 1008.2 |
| 20260904030607 | 14 | 360 | 1.6 | 6.4 | 0.00 | 0.03 | 0.00 | 61 | 1008.2 |
| 20260904030006 | 14 | 360 | 1.6 | 6.4 | 0.00 | 0.03 | 0.00 | 60 | 1008.1 |
| 20260904025511 | 15 | 360 | 0.0 | 9.7 | 0.00 | 0.03 | 0.00 | 59 | 1008.1 |
| 20260904025030 | 15 | 360 | 1.6 | 9.7 | 0.00 | 0.03 | 0.00 | 59 | 1007.9 |
| 20260904024517 | 15 | 34 | 1.6 | 12.9 | 0.00 | 0.03 | 0.00 | 58 | 1007.8 |
| 20260904024036 | 15 | 360 | 1.6 | 12.9 | 0.00 | 0.03 | 0.00 | 57 | 1007.7 |
| 20260904023530 | 15 | 360 | 1.6 | 6.4 | 0.00 | 0.03 | 0.00 | 57 | 1007.7 |
| 20260904023035 | 15 | 360 | 0.0 | 3.2 | 0.00 | 0.03 | 0.00 | 57 | 1007.6 |
| 20260904022506 | 15 | 360 | 0.0 | 12.9 | 0.00 | 0.03 | 0.00 | 57 | 1007.6 |
| 20260904022043 | 15 | 360 | 4.8 | 12.9 | 0.00 | 0.03 | 0.00 | 56 | 1007.6 |
| 20260904021509 | 16 | 360 | 0.0 | 8.0 | 0.00 | 0.03 | 0.00 | 56 | 1007.6 |
| 20260904021014 | 16 | 360 | 1.6 | 12.9 | 0.00 | 0.03 | 0.00 | 55 | 1007.5 |
| 20260904020551 | 16 | 360 | 0.0 | 12.9 | 0.00 | 0.03 | 0.00 | 55 | 1007.5 |
| 20260904020029 | 16 | 82 | 1.6 | 6.4 | 0.00 | 0.03 | 0.00 | 54 | 1007.6 |
| 20260904015511 | 16 | 360 | 3.2 | 12.9 | 0.00 | 0.03 | 0.00 | 54 | 1007.4 |
| 20260904015014 | 16 | 360 | 4.8 | 12.9 | 0.00 | 0.03 | 0.00 | 53 | 1007.5 |
| 20260904014508 | 17 | 360 | 4.8 | 8.0 | 0.00 | 0.03 | 0.00 | 52 | 1007.5 |
| 20260904014044 | 17 | 360 | 1.6 | 6.4 | 0.00 | 0.03 | 0.00 | 52 | 1007.2 |
| 20260904013514 | 17 | 360 | 1.6 | 6.4 | 0.00 | 0.03 | 0.00 | 51 | 1007.3 |
| 20260904013041 | 17 | 360 | 1.6 | 6.4 | 0.00 | 0.03 | 0.00 | 51 | 1007.2 |
| 20260904012538 | 18 | 360 | 1.6 | 12.9 | 0.00 | 0.03 | 0.00 | 51 | 1007.1 |
| 20260904012004 | 18 | 360 | 3.2 | 12.9 | 0.00 | 0.03 | 0.00 | 49 | 1007.1 |
| 20260904011545 | 18 | 360 | 1.6 | 6.4 | 0.00 | 0.03 | 0.00 | 47 | 1007.2 |
| 20260904011051 | 19 | 360 | 0.0 | 6.4 | 0.00 | 0.03 | 0.00 | 46 | 1007.1 |
| 20260904010514 | 19 | 360 | 0.0 | 8.0 | 0.00 | 0.03 | 0.00 | 46 | 1007.2 |
| 20260904010040 | 20 | 17 | 0.0 | 6.4 | 0.00 | 0.03 | 0.00 | 45 | 1007.3 |
| 20260904005555 | 20 | 165 | 3.2 | 8.0 | 0.00 | 0.03 | 0.00 | 41 | 1007.3 |
| 20260904005006 | 20 | 161 | 1.6 | 11.3 | 0.00 | 0.03 | 0.00 | 40 | 1007.3 |
| 20260904004526 | 20 | 78 | 3.2 | 11.3 | 0.00 | 0.03 | 0.00 | 39 | 1007.2 |
| 20260904004022 | 21 | 150 | 4.8 | 11.3 | 0.00 | 0.03 | 0.00 | 38 | 1007.1 |
| 20260904003554 | 21 | 156 | 3.2 | 9.7 | 0.00 | 0.03 | 0.00 | 37 | 1007.1 |
| 20260904003111 | 20 | 148 | 4.8 | 9.7 | 0.00 | 0.03 | 0.00 | 37 | 1007.1 |
| 20260904002504 | 20 | 196 | 3.2 | 11.3 | 0.00 | 0.03 | 0.00 | 37 | 1007.2 |
| 20260904002014 | 20 | 219 | 6.4 | 12.9 | 0.00 | 0.03 | 0.00 | 37 | 1007.2 |
| 20260904001535 | 20 | 188 | 3.2 | 12.9 | 0.00 | 0.03 | 0.00 | 37 | 1007.2 |
| 20260904001043 | 20 | 195 | 6.4 | 12.9 | 0.00 | 0.03 | 0.00 | 37 | 1007.3 |
| 20260904000551 | 20 | 146 | 4.8 | 11.3 | 0.00 | 0.03 | 0.00 | 37 | 1007.3 |
| 20260904000009 | 20 | 186 | 6.4 | 9.7 | 0.00 | 0.03 | 0.00 | 37 | 1007.3 |
| 20260903235555 | 20 | 188 | 1.6 | 14.5 | 0.00 | 0.03 | 0.00 | 36 | 1007.3 |
| 20260903235025 | 20 | 150 | 6.4 | 14.5 | 0.00 | 0.03 | 0.00 | 37 | 1007.2 |
| 20260903234556 | 20 | 186 | 3.2 | 14.5 | 0.00 | 0.03 | 0.00 | 37 | 1007.3 |
| 20260903234019 | 20 | 173 | 4.8 | 12.9 | 0.00 | 0.03 | 0.00 | 36 | 1007.3 |
| 20260903233600 | 20 | 183 | 4.8 | 16.1 | 0.00 | 0.03 | 0.00 | 36 | 1007.3 |
| 20260903233036 | 20 | 179 | 8.0 | 16.1 | 0.00 | 0.03 | 0.00 | 37 | 1007.3 |
| 20260903232603 | 20 | 157 | 8.0 | 16.1 | 0.00 | 0.03 | 0.00 | 37 | 1007.4 |
| 20260903232018 | 20 | 154 | 9.7 | 16.1 | 0.00 | 0.03 | 0.00 | 37 | 1007.5 |
| 20260903231535 | 20 | 166 | 9.7 | 16.1 | 0.00 | 0.03 | 0.00 | 38 | 1007.5 |
| 20260903231101 | 20 | 201 | 8.0 | 16.1 | 0.00 | 0.03 | 0.00 | 38 | 1007.5 |
| 20260903230506 | 20 | 166 | 12.9 | 16.1 | 0.00 | 0.03 | 0.00 | 38 | 1007.7 |
| 20260903230038 | 20 | 144 | 8.0 | 17.7 | 0.00 | 0.03 | 0.00 | 38 | 1007.6 |
| 20260903225546 | 20 | 163 | 11.3 | 17.7 | 0.00 | 0.03 | 0.00 | 37 | 1007.6 |
| 20260903225019 | 20 | 157 | 11.3 | 17.7 | 0.00 | 0.03 | 0.00 | 38 | 1007.6 |
| 20260903224550 | 20 | 202 | 8.0 | 19.3 | 0.00 | 0.03 | 0.00 | 39 | 1007.6 |
| 20260903224044 | 20 | 160 | 9.7 | 19.3 | 0.00 | 0.03 | 0.00 | 40 | 1007.7 |
| 20260903223556 | 20 | 160 | 11.3 | 17.7 | 0.00 | 0.03 | 0.00 | 41 | 1007.8 |
| 20260903223031 | 20 | 175 | 11.3 | 27.4 | 0.00 | 0.03 | 0.00 | 40 | 1007.9 |
| 20260903222541 | 19 | 182 | 12.9 | 27.4 | 0.00 | 0.03 | 0.00 | 41 | 1007.9 |
| 20260903222007 | 19 | 171 | 12.9 | 24.1 | 0.00 | 0.03 | 0.00 | 39 | 1007.9 |
| 20260903221533 | 20 | 177 | 12.9 | 20.9 | 0.00 | 0.03 | 0.00 | 39 | 1007.9 |
| 20260903221057 | 20 | 183 | 9.7 | 20.9 | 0.00 | 0.03 | 0.00 | 41 | 1007.9 |
| 20260903220532 | 19 | 159 | 9.7 | 24.1 | 0.00 | 0.03 | 0.00 | 41 | 1008.1 |
| 20260903220057 | 20 | 178 | 14.5 | 24.1 | 0.00 | 0.03 | 0.00 | 40 | 1008.1 |